Year,Month,Day,Hour,Minute,Value (Times are PST for temperature in C)
2010,07,13,00,00,12.60
2010,07,13,00,01,12.60
2010,07,13,00,02,12.60
2010,07,13,00,03,12.70
2010,07,13,00,04,12.70
2010,07,13,00,05,12.70
2010,07,13,00,06,12.70
2010,07,13,00,07,12.70
2010,07,13,00,08,12.80
2010,07,13,00,09,12.80
2010,07,13,00,10,12.80
2010,07,13,00,11,12.80
2010,07,13,00,12,12.80
2010,07,13,00,13,12.70
2010,07,13,00,14,12.70
2010,07,13,00,15,12.70
2010,07,13,00,16,12.70
2010,07,13,00,17,12.70
2010,07,13,00,18,12.70
2010,07,13,00,19,12.70
2010,07,13,00,20,12.70
2010,07,13,00,21,12.70
2010,07,13,00,22,12.70
2010,07,13,00,23,12.70
2010,07,13,00,24,12.70
2010,07,13,00,25,12.70
2010,07,13,00,26,12.70
2010,07,13,00,27,12.70
2010,07,13,00,28,12.70
2010,07,13,00,29,12.70
2010,07,13,00,30,12.70
2010,07,13,00,31,12.70
2010,07,13,00,32,12.70
2010,07,13,00,33,12.70
2010,07,13,00,34,12.70
2010,07,13,00,35,12.70
2010,07,13,00,36,12.70
2010,07,13,00,37,12.70
2010,07,13,00,38,12.70
2010,07,13,00,39,12.70
2010,07,13,00,40,12.70
2010,07,13,00,41,12.70
2010,07,13,00,42,12.70
2010,07,13,00,43,12.70
2010,07,13,00,44,12.70
2010,07,13,00,45,12.60
2010,07,13,00,46,12.60
2010,07,13,00,47,12.60
2010,07,13,00,48,12.60
2010,07,13,00,49,12.70
2010,07,13,00,50,12.70
2010,07,13,00,51,12.70
2010,07,13,00,52,12.70
2010,07,13,00,53,12.70
2010,07,13,00,54,12.70
2010,07,13,00,55,12.80
2010,07,13,00,56,12.80
2010,07,13,00,57,12.80
2010,07,13,00,58,12.80
2010,07,13,00,59,12.80
2010,07,13,01,00,12.80
2010,07,13,01,01,12.80
2010,07,13,01,02,12.80
2010,07,13,01,03,12.80
2010,07,13,01,04,12.80
2010,07,13,01,05,12.80
2010,07,13,01,06,12.80
2010,07,13,01,07,12.80
2010,07,13,01,08,12.80
2010,07,13,01,09,12.80
2010,07,13,01,10,12.70
2010,07,13,01,11,12.70
2010,07,13,01,12,12.70
2010,07,13,01,13,12.70
2010,07,13,01,14,12.70
2010,07,13,01,15,12.70
2010,07,13,01,16,12.70
2010,07,13,01,17,12.70
2010,07,13,01,18,12.80
2010,07,13,01,19,12.80
2010,07,13,01,20,12.80
2010,07,13,01,21,12.80
2010,07,13,01,22,12.80
2010,07,13,01,23,12.80
2010,07,13,01,24,12.90
2010,07,13,01,25,12.90
2010,07,13,01,26,12.90
2010,07,13,01,27,12.90
2010,07,13,01,28,12.90
2010,07,13,01,29,12.90
2010,07,13,01,30,12.90
2010,07,13,01,31,12.90
2010,07,13,01,32,12.90
2010,07,13,01,33,12.90
2010,07,13,01,34,12.90
2010,07,13,01,35,12.80
2010,07,13,01,36,12.80
2010,07,13,01,37,12.80
2010,07,13,01,38,12.80
2010,07,13,01,39,12.70
2010,07,13,01,40,12.70
2010,07,13,01,41,12.70
2010,07,13,01,42,12.70
2010,07,13,01,43,12.60
2010,07,13,01,44,12.60
2010,07,13,01,45,12.60
2010,07,13,01,46,12.60
2010,07,13,01,47,12.60
2010,07,13,01,48,12.60
2010,07,13,01,49,12.60
2010,07,13,01,50,12.60
2010,07,13,01,51,12.60
2010,07,13,01,52,12.60
2010,07,13,01,53,12.50
2010,07,13,01,54,12.50
2010,07,13,01,55,12.50
2010,07,13,01,56,12.50
2010,07,13,01,57,12.40
2010,07,13,01,58,12.40
2010,07,13,01,59,12.40
2010,07,13,02,00,12.40
2010,07,13,02,01,12.40
2010,07,13,02,02,12.40
2010,07,13,02,03,12.30
2010,07,13,02,04,12.30
2010,07,13,02,05,12.30
2010,07,13,02,06,12.30
2010,07,13,02,07,12.30
2010,07,13,02,08,12.30
2010,07,13,02,09,12.20
2010,07,13,02,10,12.20
2010,07,13,02,11,12.20
2010,07,13,02,12,12.20
2010,07,13,02,13,12.20
2010,07,13,02,14,12.20
2010,07,13,02,15,12.20
2010,07,13,02,16,12.20
2010,07,13,02,17,12.10
2010,07,13,02,18,12.10
2010,07,13,02,19,12.10
2010,07,13,02,20,12.10
2010,07,13,02,21,12.10
2010,07,13,02,22,12.10
2010,07,13,02,23,12.10
2010,07,13,02,24,12.10
2010,07,13,02,25,12.00
2010,07,13,02,26,12.00
2010,07,13,02,27,12.00
2010,07,13,02,28,12.00
2010,07,13,02,29,12.00
2010,07,13,02,30,11.90
2010,07,13,02,31,11.90
2010,07,13,02,32,11.90
2010,07,13,02,33,11.90
2010,07,13,02,34,11.90
2010,07,13,02,35,11.90
2010,07,13,02,36,11.90
2010,07,13,02,37,11.90
2010,07,13,02,38,11.90
2010,07,13,02,39,11.90
2010,07,13,02,40,11.90
2010,07,13,02,41,11.90
2010,07,13,02,42,11.90
2010,07,13,02,43,11.90
2010,07,13,02,44,11.90
2010,07,13,02,45,11.90
2010,07,13,02,46,11.90
2010,07,13,02,47,11.90
2010,07,13,02,48,11.90
2010,07,13,02,49,11.80
2010,07,13,02,50,11.80
2010,07,13,02,51,11.80
2010,07,13,02,52,11.80
2010,07,13,02,53,11.80
2010,07,13,02,54,11.70
2010,07,13,02,55,11.70
2010,07,13,02,56,11.70
2010,07,13,02,57,11.70
2010,07,13,02,58,11.70
2010,07,13,02,59,11.70
2010,07,13,03,00,11.70
2010,07,13,03,01,11.70
2010,07,13,03,02,11.70
2010,07,13,03,03,11.70
2010,07,13,03,04,11.70
2010,07,13,03,05,11.70
2010,07,13,03,06,11.80
2010,07,13,03,07,11.80
2010,07,13,03,08,11.80
2010,07,13,03,09,11.80
2010,07,13,03,10,11.80
2010,07,13,03,11,11.80
2010,07,13,03,12,11.80
2010,07,13,03,13,11.80
2010,07,13,03,14,11.80
2010,07,13,03,15,11.80
2010,07,13,03,16,11.80
2010,07,13,03,17,11.80
2010,07,13,03,18,11.80
2010,07,13,03,19,11.80
2010,07,13,03,20,11.80
2010,07,13,03,21,11.80
2010,07,13,03,22,11.80
2010,07,13,03,23,11.80
2010,07,13,03,24,11.80
2010,07,13,03,25,11.80
2010,07,13,03,26,11.80
2010,07,13,03,27,11.80
2010,07,13,03,28,11.80
2010,07,13,03,29,11.80
2010,07,13,03,30,11.70
2010,07,13,03,31,11.70
2010,07,13,03,32,11.70
2010,07,13,03,33,11.70
2010,07,13,03,34,11.70
2010,07,13,03,35,11.70
2010,07,13,03,36,11.70
2010,07,13,03,37,11.70
2010,07,13,03,38,11.80
2010,07,13,03,39,11.70
2010,07,13,03,40,11.70
2010,07,13,03,41,11.70
2010,07,13,03,42,11.70
2010,07,13,03,43,11.70
2010,07,13,03,44,11.70
2010,07,13,03,45,11.70
2010,07,13,03,46,11.70
2010,07,13,03,47,11.80
2010,07,13,03,48,11.80
2010,07,13,03,49,11.80
2010,07,13,03,50,11.80
2010,07,13,03,51,11.80
2010,07,13,03,52,11.80
2010,07,13,03,53,11.80
2010,07,13,03,54,11.80
2010,07,13,03,55,11.80
2010,07,13,03,56,11.80
2010,07,13,03,57,11.80
2010,07,13,03,58,11.80
2010,07,13,03,59,11.90
2010,07,13,04,00,11.90
2010,07,13,04,01,11.90
2010,07,13,04,02,11.90
2010,07,13,04,03,11.80
2010,07,13,04,04,11.80
2010,07,13,04,05,11.80
2010,07,13,04,06,11.80
2010,07,13,04,07,11.70
2010,07,13,04,08,11.70
2010,07,13,04,09,11.70
2010,07,13,04,10,11.70
2010,07,13,04,11,11.70
2010,07,13,04,12,11.70
2010,07,13,04,13,11.60
2010,07,13,04,14,11.60
2010,07,13,04,15,11.60
2010,07,13,04,16,11.60
2010,07,13,04,17,11.60
2010,07,13,04,18,11.60
2010,07,13,04,19,11.60
2010,07,13,04,20,11.60
2010,07,13,04,21,11.50
2010,07,13,04,22,11.50
2010,07,13,04,23,11.50
2010,07,13,04,24,11.40
2010,07,13,04,25,11.40
2010,07,13,04,26,11.40
2010,07,13,04,27,11.30
2010,07,13,04,28,11.30
2010,07,13,04,29,11.30
2010,07,13,04,30,11.30
2010,07,13,04,31,11.30
2010,07,13,04,32,11.20
2010,07,13,04,33,11.20
2010,07,13,04,34,11.20
2010,07,13,04,35,11.20
2010,07,13,04,36,11.20
2010,07,13,04,37,11.20
2010,07,13,04,38,11.20
2010,07,13,04,39,11.20
2010,07,13,04,40,11.20
2010,07,13,04,41,11.20
2010,07,13,04,42,11.20
2010,07,13,04,43,11.10
2010,07,13,04,44,11.10
2010,07,13,04,45,11.10
2010,07,13,04,46,11.10
2010,07,13,04,47,11.00
2010,07,13,04,48,11.00
2010,07,13,04,49,10.90
2010,07,13,04,50,10.90
2010,07,13,04,51,10.90
2010,07,13,04,52,10.80
2010,07,13,04,53,10.80
2010,07,13,04,54,10.80
2010,07,13,04,55,10.80
2010,07,13,04,56,10.80
2010,07,13,04,57,10.70
2010,07,13,04,58,10.70
2010,07,13,04,59,10.60
2010,07,13,05,00,10.60
2010,07,13,05,01,10.60
2010,07,13,05,02,10.60
2010,07,13,05,03,10.50
2010,07,13,05,04,10.50
2010,07,13,05,05,10.50
2010,07,13,05,06,10.40
2010,07,13,05,07,10.40
2010,07,13,05,08,10.40
2010,07,13,05,09,10.40
2010,07,13,05,10,10.40
2010,07,13,05,11,10.40
2010,07,13,05,12,10.40
2010,07,13,05,13,10.30
2010,07,13,05,14,10.30
2010,07,13,05,15,10.30
2010,07,13,05,16,10.30
2010,07,13,05,17,10.30
2010,07,13,05,18,10.30
2010,07,13,05,19,10.30
2010,07,13,05,20,10.30
2010,07,13,05,21,10.20
2010,07,13,05,22,10.20
2010,07,13,05,23,10.20
2010,07,13,05,24,10.20
2010,07,13,05,25,10.20
2010,07,13,05,26,10.20
2010,07,13,05,27,10.20
2010,07,13,05,28,10.10
2010,07,13,05,29,10.10
2010,07,13,05,30,10.10
2010,07,13,05,31,10.10
2010,07,13,05,32,10.10
2010,07,13,05,33,10.10
2010,07,13,05,34,10.10
2010,07,13,05,35,10.10
2010,07,13,05,36,10.10
2010,07,13,05,37,10.10
2010,07,13,05,38,10.10
2010,07,13,05,39,10.10
2010,07,13,05,40,10.10
2010,07,13,05,41,10.10
2010,07,13,05,42,10.10
2010,07,13,05,43,10.10
2010,07,13,05,44,10.10
2010,07,13,05,45,10.10
2010,07,13,05,46,10.10
2010,07,13,05,47,10.10
2010,07,13,05,48,10.10
2010,07,13,05,49,10.10
2010,07,13,05,50,10.10
2010,07,13,05,51,10.10
2010,07,13,05,52,10.10
2010,07,13,05,53,10.10
2010,07,13,05,54,10.20
2010,07,13,05,55,10.20
2010,07,13,05,56,10.20
2010,07,13,05,57,10.20
2010,07,13,05,58,10.20
2010,07,13,05,59,10.20
2010,07,13,06,00,10.30
2010,07,13,06,01,10.30
2010,07,13,06,02,10.30
2010,07,13,06,03,10.30
2010,07,13,06,04,10.30
2010,07,13,06,05,10.30
2010,07,13,06,06,10.30
2010,07,13,06,07,10.30
2010,07,13,06,08,10.30
2010,07,13,06,09,10.40
2010,07,13,06,10,10.40
2010,07,13,06,11,10.40
2010,07,13,06,12,10.40
2010,07,13,06,13,10.50
2010,07,13,06,14,10.50
2010,07,13,06,15,10.60
2010,07,13,06,16,10.60
2010,07,13,06,17,10.70
2010,07,13,06,18,10.70
2010,07,13,06,19,10.80
2010,07,13,06,20,10.80
2010,07,13,06,21,10.80
2010,07,13,06,22,10.90
2010,07,13,06,23,10.90
2010,07,13,06,24,11.00
2010,07,13,06,25,11.10
2010,07,13,06,26,11.10
2010,07,13,06,27,11.20
2010,07,13,06,28,11.30
2010,07,13,06,29,11.30
2010,07,13,06,30,11.30
2010,07,13,06,31,11.40
2010,07,13,06,32,11.40
2010,07,13,06,33,11.50
2010,07,13,06,34,11.60
2010,07,13,06,35,11.60
2010,07,13,06,36,11.60
2010,07,13,06,37,11.60
2010,07,13,06,38,11.60
2010,07,13,06,39,11.60
2010,07,13,06,40,11.60
2010,07,13,06,41,11.60
2010,07,13,06,42,11.70
2010,07,13,06,43,11.70
2010,07,13,06,44,11.70
2010,07,13,06,45,11.70
2010,07,13,06,46,11.70
2010,07,13,06,47,11.70
2010,07,13,06,48,11.70
2010,07,13,06,49,11.80
2010,07,13,06,50,11.80
2010,07,13,06,51,11.80
2010,07,13,06,52,11.80
2010,07,13,06,53,11.90
2010,07,13,06,54,11.90
2010,07,13,06,55,11.90
2010,07,13,06,56,11.90
2010,07,13,06,57,12.00
2010,07,13,06,58,12.00
2010,07,13,06,59,12.00
2010,07,13,07,00,12.00
2010,07,13,07,01,12.00
2010,07,13,07,02,12.10
2010,07,13,07,03,12.10
2010,07,13,07,04,12.10
2010,07,13,07,05,12.20
2010,07,13,07,06,12.20
2010,07,13,07,07,12.30
2010,07,13,07,08,12.30
2010,07,13,07,09,12.40
2010,07,13,07,10,12.50
2010,07,13,07,11,12.60
2010,07,13,07,12,12.70
2010,07,13,07,13,12.70
2010,07,13,07,14,12.70
2010,07,13,07,15,12.70
2010,07,13,07,16,12.70
2010,07,13,07,17,12.70
2010,07,13,07,18,12.70
2010,07,13,07,19,12.60
2010,07,13,07,20,12.60
2010,07,13,07,21,12.60
2010,07,13,07,22,12.50
2010,07,13,07,23,12.50
2010,07,13,07,24,12.50
2010,07,13,07,25,12.40
2010,07,13,07,26,12.40
2010,07,13,07,27,12.40
2010,07,13,07,28,12.30
2010,07,13,07,29,12.30
2010,07,13,07,30,12.30
2010,07,13,07,31,12.30
2010,07,13,07,32,12.30
2010,07,13,07,33,12.30
2010,07,13,07,34,12.30
2010,07,13,07,35,12.30
2010,07,13,07,36,12.30
2010,07,13,07,37,12.30
2010,07,13,07,38,12.30
2010,07,13,07,39,12.30
2010,07,13,07,40,12.30
2010,07,13,07,41,12.30
2010,07,13,07,42,12.30
2010,07,13,07,43,12.30
2010,07,13,07,44,12.30
2010,07,13,07,45,12.40
2010,07,13,07,46,12.40
2010,07,13,07,47,12.40
2010,07,13,07,48,12.40
2010,07,13,07,49,12.40
2010,07,13,07,50,12.50
2010,07,13,07,51,12.50
2010,07,13,07,52,12.50
2010,07,13,07,53,12.50
2010,07,13,07,54,12.60
2010,07,13,07,55,12.60
2010,07,13,07,56,12.60
2010,07,13,07,57,12.60
2010,07,13,07,58,12.60
2010,07,13,07,59,12.60
2010,07,13,08,00,12.70
2010,07,13,08,01,12.70
2010,07,13,08,02,12.70
2010,07,13,08,03,12.70
2010,07,13,08,04,12.70
2010,07,13,08,05,12.80
2010,07,13,08,06,12.80
2010,07,13,08,07,12.80
2010,07,13,08,08,12.80
2010,07,13,08,09,12.80
2010,07,13,08,10,12.80
2010,07,13,08,11,12.80
2010,07,13,08,12,12.90
2010,07,13,08,13,12.90
2010,07,13,08,14,12.90
2010,07,13,08,15,12.90
2010,07,13,08,16,12.90
2010,07,13,08,17,12.90
2010,07,13,08,18,12.90
2010,07,13,08,19,12.90
2010,07,13,08,20,12.90
2010,07,13,08,21,12.90
2010,07,13,08,22,12.90
2010,07,13,08,23,13.00
2010,07,13,08,24,13.00
2010,07,13,08,25,13.00
2010,07,13,08,26,13.10
2010,07,13,08,27,13.10
2010,07,13,08,28,13.10
2010,07,13,08,29,13.20
2010,07,13,08,30,13.20
2010,07,13,08,31,13.30
2010,07,13,08,32,13.30
2010,07,13,08,33,13.30
2010,07,13,08,34,13.40
2010,07,13,08,35,13.40
2010,07,13,08,36,13.40
2010,07,13,08,37,13.50
2010,07,13,08,38,13.60
2010,07,13,08,39,13.70
2010,07,13,08,40,13.70
2010,07,13,08,41,13.80
2010,07,13,08,42,13.90
2010,07,13,08,43,14.00
2010,07,13,08,44,14.10
2010,07,13,08,45,14.10
2010,07,13,08,46,14.20
2010,07,13,08,47,14.30
2010,07,13,08,48,14.30
2010,07,13,08,49,14.30
2010,07,13,08,50,14.40
2010,07,13,08,51,14.50
2010,07,13,08,52,14.50
2010,07,13,08,53,14.70
2010,07,13,08,54,14.80
2010,07,13,08,55,14.80
2010,07,13,08,56,14.90
2010,07,13,08,57,14.90
2010,07,13,08,58,14.90
2010,07,13,08,59,15.00
2010,07,13,09,00,15.00
2010,07,13,09,01,15.00
2010,07,13,09,02,15.10
2010,07,13,09,03,15.20
2010,07,13,09,04,15.20
2010,07,13,09,05,15.30
2010,07,13,09,06,15.30
2010,07,13,09,07,15.40
2010,07,13,09,08,15.40
2010,07,13,09,09,15.40
2010,07,13,09,10,15.40
2010,07,13,09,11,15.50
2010,07,13,09,12,15.50
2010,07,13,09,13,15.50
2010,07,13,09,14,15.60
2010,07,13,09,15,15.50
2010,07,13,09,16,15.50
2010,07,13,09,17,15.50
2010,07,13,09,18,15.50
2010,07,13,09,19,15.50
2010,07,13,09,20,15.60
2010,07,13,09,21,15.60
2010,07,13,09,22,15.60
2010,07,13,09,23,15.60
2010,07,13,09,24,15.70
2010,07,13,09,25,15.80
2010,07,13,09,26,15.80
2010,07,13,09,27,15.90
2010,07,13,09,28,15.90
2010,07,13,09,29,15.90
2010,07,13,09,30,15.90
2010,07,13,09,31,15.80
2010,07,13,09,32,15.80
2010,07,13,09,33,15.80
2010,07,13,09,34,15.80
2010,07,13,09,35,15.80
2010,07,13,09,36,15.90
2010,07,13,09,37,15.90
2010,07,13,09,38,15.90
2010,07,13,09,39,15.90
2010,07,13,09,40,15.90
2010,07,13,09,41,15.90
2010,07,13,09,42,15.90
2010,07,13,09,43,16.00
2010,07,13,09,44,16.10
2010,07,13,09,45,16.10
2010,07,13,09,46,16.20
2010,07,13,09,47,16.30
2010,07,13,09,48,16.40
2010,07,13,09,49,16.40
2010,07,13,09,50,16.60
2010,07,13,09,51,16.60
2010,07,13,09,52,16.70
2010,07,13,09,53,16.80
2010,07,13,09,54,16.80
2010,07,13,09,55,16.80
2010,07,13,09,56,16.80
2010,07,13,09,57,16.80
2010,07,13,09,58,16.80
2010,07,13,09,59,16.80
2010,07,13,10,00,16.80
2010,07,13,10,01,16.80
2010,07,13,10,02,16.90
2010,07,13,10,03,17.00
2010,07,13,10,04,17.00
2010,07,13,10,05,17.00
2010,07,13,10,06,17.00
2010,07,13,10,07,17.10
2010,07,13,10,08,17.10
2010,07,13,10,09,16.90
2010,07,13,10,10,16.80
2010,07,13,10,11,16.80
2010,07,13,10,12,16.80
2010,07,13,10,13,16.90
2010,07,13,10,14,17.10
2010,07,13,10,15,17.20
2010,07,13,10,16,17.20
2010,07,13,10,17,17.20
2010,07,13,10,18,17.30
2010,07,13,10,19,17.40
2010,07,13,10,20,17.30
2010,07,13,10,21,17.30
2010,07,13,10,22,17.30
2010,07,13,10,23,17.40
2010,07,13,10,24,17.50
2010,07,13,10,25,17.60
2010,07,13,10,26,17.60
2010,07,13,10,27,17.60
2010,07,13,10,28,17.60
2010,07,13,10,29,17.60
2010,07,13,10,30,17.70
2010,07,13,10,31,17.70
2010,07,13,10,32,17.90
2010,07,13,10,33,17.90
2010,07,13,10,34,17.90
2010,07,13,10,35,17.90
2010,07,13,10,36,17.80
2010,07,13,10,37,17.80
2010,07,13,10,38,17.80
2010,07,13,10,39,17.70
2010,07,13,10,40,17.60
2010,07,13,10,41,17.60
2010,07,13,10,42,17.60
2010,07,13,10,43,17.60
2010,07,13,10,44,17.60
2010,07,13,10,45,17.60
2010,07,13,10,46,17.70
2010,07,13,10,47,17.80
2010,07,13,10,48,17.90
2010,07,13,10,49,17.80
2010,07,13,10,50,17.70
2010,07,13,10,51,17.50
2010,07,13,10,52,17.50
2010,07,13,10,53,17.60
2010,07,13,10,54,17.70
2010,07,13,10,55,17.80
2010,07,13,10,56,17.80
2010,07,13,10,57,17.90
2010,07,13,10,58,17.80
2010,07,13,10,59,17.80
2010,07,13,11,00,17.80
2010,07,13,11,01,17.80
2010,07,13,11,02,17.80
2010,07,13,11,03,17.70
2010,07,13,11,04,17.70
2010,07,13,11,05,17.60
2010,07,13,11,06,17.60
2010,07,13,11,07,17.60
2010,07,13,11,08,17.70
2010,07,13,11,09,17.60
2010,07,13,11,10,17.60
2010,07,13,11,11,17.60
2010,07,13,11,12,17.60
2010,07,13,11,13,17.60
2010,07,13,11,14,17.60
2010,07,13,11,15,17.60
2010,07,13,11,16,17.60
2010,07,13,11,17,17.70
2010,07,13,11,18,17.80
2010,07,13,11,19,17.80
2010,07,13,11,20,17.80
2010,07,13,11,21,17.70
2010,07,13,11,22,17.70
2010,07,13,11,23,17.80
2010,07,13,11,24,17.80
2010,07,13,11,25,17.80
2010,07,13,11,26,17.80
2010,07,13,11,27,17.80
2010,07,13,11,28,17.80
2010,07,13,11,29,17.80
2010,07,13,11,30,17.90
2010,07,13,11,31,18.10
2010,07,13,11,32,18.10
2010,07,13,11,33,18.10
2010,07,13,11,34,18.20
2010,07,13,11,35,18.30
2010,07,13,11,36,18.50
2010,07,13,11,37,18.60
2010,07,13,11,38,18.70
2010,07,13,11,39,18.80
2010,07,13,11,40,18.90
2010,07,13,11,41,18.80
2010,07,13,11,42,18.70
2010,07,13,11,43,18.70
2010,07,13,11,44,18.70
2010,07,13,11,45,18.70
2010,07,13,11,46,18.80
2010,07,13,11,47,18.80
2010,07,13,11,48,18.90
2010,07,13,11,49,19.00
2010,07,13,11,50,18.90
2010,07,13,11,51,18.80
2010,07,13,11,52,18.80
2010,07,13,11,53,18.70
2010,07,13,11,54,18.70
2010,07,13,11,55,18.70
2010,07,13,11,56,18.70
2010,07,13,11,57,18.60
2010,07,13,11,58,18.50
2010,07,13,11,59,18.50
2010,07,13,12,00,18.50
2010,07,13,12,01,18.50
2010,07,13,12,02,18.60
2010,07,13,12,03,18.70
2010,07,13,12,04,18.80
2010,07,13,12,05,18.80
2010,07,13,12,06,18.80
2010,07,13,12,07,18.80
2010,07,13,12,08,18.70
2010,07,13,12,09,18.70
2010,07,13,12,10,18.70
2010,07,13,12,11,18.60
2010,07,13,12,12,18.60
2010,07,13,12,13,18.70
2010,07,13,12,14,18.80
2010,07,13,12,15,18.90
2010,07,13,12,16,19.10
2010,07,13,12,17,19.20
2010,07,13,12,18,19.20
2010,07,13,12,19,19.20
2010,07,13,12,20,19.20
2010,07,13,12,21,19.10
2010,07,13,12,22,19.10
2010,07,13,12,23,19.00
2010,07,13,12,24,19.00
2010,07,13,12,25,19.10
2010,07,13,12,26,19.20
2010,07,13,12,27,19.20
2010,07,13,12,28,19.20
2010,07,13,12,29,19.20
2010,07,13,12,30,19.20
2010,07,13,12,31,19.30
2010,07,13,12,32,19.30
2010,07,13,12,33,19.40
2010,07,13,12,34,19.40
2010,07,13,12,35,19.50
2010,07,13,12,36,19.40
2010,07,13,12,37,19.40
2010,07,13,12,38,19.30
2010,07,13,12,39,19.20
2010,07,13,12,40,19.10
2010,07,13,12,41,19.00
2010,07,13,12,42,18.90
2010,07,13,12,43,18.90
2010,07,13,12,44,18.90
2010,07,13,12,45,18.80
2010,07,13,12,46,18.80
2010,07,13,12,47,18.90
2010,07,13,12,48,19.00
2010,07,13,12,49,19.00
2010,07,13,12,50,19.10
2010,07,13,12,51,19.20
2010,07,13,12,52,19.30
2010,07,13,12,53,19.30
2010,07,13,12,54,19.40
2010,07,13,12,55,19.50
2010,07,13,12,56,19.60
2010,07,13,12,57,19.50
2010,07,13,12,58,19.40
2010,07,13,12,59,19.40
2010,07,13,13,00,19.30
2010,07,13,13,01,19.20
2010,07,13,13,02,19.20
2010,07,13,13,03,19.20
2010,07,13,13,04,19.20
2010,07,13,13,05,19.20
2010,07,13,13,06,19.20
2010,07,13,13,07,19.20
2010,07,13,13,08,19.20
2010,07,13,13,09,19.20
2010,07,13,13,10,19.30
2010,07,13,13,11,19.30
2010,07,13,13,12,19.30
2010,07,13,13,13,19.30
2010,07,13,13,14,19.30
2010,07,13,13,15,19.40
2010,07,13,13,16,19.50
2010,07,13,13,17,19.50
2010,07,13,13,18,19.60
2010,07,13,13,19,19.70
2010,07,13,13,20,19.80
2010,07,13,13,21,19.80
2010,07,13,13,22,19.90
2010,07,13,13,23,20.00
2010,07,13,13,24,20.10
2010,07,13,13,25,20.20
2010,07,13,13,26,20.20
2010,07,13,13,27,20.40
2010,07,13,13,28,20.50
2010,07,13,13,29,20.40
2010,07,13,13,30,20.30
2010,07,13,13,31,20.20
2010,07,13,13,32,20.00
2010,07,13,13,33,19.90
2010,07,13,13,34,19.80
2010,07,13,13,35,19.80
2010,07,13,13,36,19.90
2010,07,13,13,37,19.90
2010,07,13,13,38,19.80
2010,07,13,13,39,19.70
2010,07,13,13,40,19.70
2010,07,13,13,41,19.70
2010,07,13,13,42,19.70
2010,07,13,13,43,19.80
2010,07,13,13,44,19.90
2010,07,13,13,45,20.00
2010,07,13,13,46,20.10
2010,07,13,13,47,20.20
2010,07,13,13,48,20.10
2010,07,13,13,49,20.10
2010,07,13,13,50,20.10
2010,07,13,13,51,20.00
2010,07,13,13,52,20.00
2010,07,13,13,53,20.00
2010,07,13,13,54,20.00
2010,07,13,13,55,20.10
2010,07,13,13,56,20.10
2010,07,13,13,57,20.20
2010,07,13,13,58,20.30
2010,07,13,13,59,20.40
2010,07,13,14,00,20.30
2010,07,13,14,01,20.20
2010,07,13,14,02,20.20
2010,07,13,14,03,20.30
2010,07,13,14,04,20.30
2010,07,13,14,05,20.30
2010,07,13,14,06,20.30
2010,07,13,14,07,20.40
2010,07,13,14,08,20.40
2010,07,13,14,09,20.50
2010,07,13,14,10,20.60
2010,07,13,14,11,20.80
2010,07,13,14,12,20.80
2010,07,13,14,13,20.70
2010,07,13,14,14,20.60
2010,07,13,14,15,20.50
2010,07,13,14,16,20.40
2010,07,13,14,17,20.20
2010,07,13,14,18,20.20
2010,07,13,14,19,20.20
2010,07,13,14,20,20.20
2010,07,13,14,21,20.30
2010,07,13,14,22,20.50
2010,07,13,14,23,20.50
2010,07,13,14,24,20.50
2010,07,13,14,25,20.40
2010,07,13,14,26,20.30
2010,07,13,14,27,20.30
2010,07,13,14,28,20.20
2010,07,13,14,29,20.10
2010,07,13,14,30,20.00
2010,07,13,14,31,19.90
2010,07,13,14,32,19.90
2010,07,13,14,33,19.90
2010,07,13,14,34,19.90
2010,07,13,14,35,20.00
2010,07,13,14,36,20.10
2010,07,13,14,37,20.20
2010,07,13,14,38,20.30
2010,07,13,14,39,20.40
2010,07,13,14,40,20.60
2010,07,13,14,41,20.70
2010,07,13,14,42,20.70
2010,07,13,14,43,20.60
2010,07,13,14,44,20.60
2010,07,13,14,45,20.50
2010,07,13,14,46,20.40
2010,07,13,14,47,20.30
2010,07,13,14,48,20.30
2010,07,13,14,49,20.30
2010,07,13,14,50,20.30
2010,07,13,14,51,20.30
2010,07,13,14,52,20.40
2010,07,13,14,53,20.50
2010,07,13,14,54,20.70
2010,07,13,14,55,20.80
2010,07,13,14,56,20.80
2010,07,13,14,57,20.90
2010,07,13,14,58,21.10
2010,07,13,14,59,21.30
2010,07,13,15,00,21.30
2010,07,13,15,01,21.10
2010,07,13,15,02,20.90
2010,07,13,15,03,20.80
2010,07,13,15,04,20.60
2010,07,13,15,05,20.40
2010,07,13,15,06,20.30
2010,07,13,15,07,20.20
2010,07,13,15,08,20.20
2010,07,13,15,09,20.30
2010,07,13,15,10,20.30
2010,07,13,15,11,20.40
2010,07,13,15,12,20.50
2010,07,13,15,13,20.60
2010,07,13,15,14,20.60
2010,07,13,15,15,20.70
2010,07,13,15,16,20.60
2010,07,13,15,17,20.50
2010,07,13,15,18,20.30
2010,07,13,15,19,20.30
2010,07,13,15,20,20.20
2010,07,13,15,21,20.20
2010,07,13,15,22,20.20
2010,07,13,15,23,20.20
2010,07,13,15,24,20.10
2010,07,13,15,25,20.10
2010,07,13,15,26,20.10
2010,07,13,15,27,20.10
2010,07,13,15,28,20.00
2010,07,13,15,29,20.00
2010,07,13,15,30,20.00
2010,07,13,15,31,20.00
2010,07,13,15,32,20.00
2010,07,13,15,33,20.00
2010,07,13,15,34,20.00
2010,07,13,15,35,19.90
2010,07,13,15,36,20.00
2010,07,13,15,37,20.00
2010,07,13,15,38,20.10
2010,07,13,15,39,20.10
2010,07,13,15,40,20.10
2010,07,13,15,41,20.10
2010,07,13,15,42,20.10
2010,07,13,15,43,20.10
2010,07,13,15,44,20.00
2010,07,13,15,45,19.90
2010,07,13,15,46,20.00
2010,07,13,15,47,20.10
2010,07,13,15,48,20.20
2010,07,13,15,49,20.30
2010,07,13,15,50,20.30
2010,07,13,15,51,20.30
2010,07,13,15,52,20.20
2010,07,13,15,53,20.20
2010,07,13,15,54,20.30
2010,07,13,15,55,20.40
2010,07,13,15,56,20.40
2010,07,13,15,57,20.40
2010,07,13,15,58,20.40
2010,07,13,15,59,20.30
2010,07,13,16,00,20.10
2010,07,13,16,01,20.00
2010,07,13,16,02,20.00
2010,07,13,16,03,19.90
2010,07,13,16,04,19.80
2010,07,13,16,05,19.90
2010,07,13,16,06,19.90
2010,07,13,16,07,20.00
2010,07,13,16,08,20.10
2010,07,13,16,09,20.20
2010,07,13,16,10,20.20
2010,07,13,16,11,20.20
2010,07,13,16,12,20.20
2010,07,13,16,13,20.30
2010,07,13,16,14,20.30
2010,07,13,16,15,20.40
2010,07,13,16,16,20.50
2010,07,13,16,17,20.60
2010,07,13,16,18,20.70
2010,07,13,16,19,20.80
2010,07,13,16,20,20.80
2010,07,13,16,21,20.80
2010,07,13,16,22,20.80
2010,07,13,16,23,20.70
2010,07,13,16,24,20.60
2010,07,13,16,25,20.60
2010,07,13,16,26,20.50
2010,07,13,16,27,20.50
2010,07,13,16,28,20.50
2010,07,13,16,29,20.60
2010,07,13,16,30,20.50
2010,07,13,16,31,20.40
2010,07,13,16,32,20.40
2010,07,13,16,33,20.50
2010,07,13,16,34,20.50
2010,07,13,16,35,20.50
2010,07,13,16,36,20.40
2010,07,13,16,37,20.30
2010,07,13,16,38,20.10
2010,07,13,16,39,20.00
2010,07,13,16,40,20.00
2010,07,13,16,41,20.10
2010,07,13,16,42,20.20
2010,07,13,16,43,20.30
2010,07,13,16,44,20.40
2010,07,13,16,45,20.40
2010,07,13,16,46,20.30
2010,07,13,16,47,20.30
2010,07,13,16,48,20.30
2010,07,13,16,49,20.30
2010,07,13,16,50,20.30
2010,07,13,16,51,20.30
2010,07,13,16,52,20.20
2010,07,13,16,53,20.20
2010,07,13,16,54,20.20
2010,07,13,16,55,20.20
2010,07,13,16,56,20.10
2010,07,13,16,57,20.10
2010,07,13,16,58,20.10
2010,07,13,16,59,20.10
2010,07,13,17,00,20.20
2010,07,13,17,01,20.30
2010,07,13,17,02,20.30
2010,07,13,17,03,20.30
2010,07,13,17,04,20.30
2010,07,13,17,05,20.30
2010,07,13,17,06,20.30
2010,07,13,17,07,20.30
2010,07,13,17,08,20.30
2010,07,13,17,09,20.20
2010,07,13,17,10,20.20
2010,07,13,17,11,20.20
2010,07,13,17,12,20.20
2010,07,13,17,13,20.20
2010,07,13,17,14,20.20
2010,07,13,17,15,20.20
2010,07,13,17,16,20.20
2010,07,13,17,17,20.20
2010,07,13,17,18,20.30
2010,07,13,17,19,20.30